Location: Red Rock Canyon
(36.1333°N, 115.4333°W)
Time: 19:39:28
(UTC-07:00)

ISS - Visible Passes

Search period start: 25 July 2016 00:00
Search period end: 04 August 2016 00:00
Orbit: 401 x 404 km, 51.6° (Epoch: 25 July)

Date Brightness Start Highest point End Pass type
(mag) Time Alt. Az. Time Alt. Az. Time Alt. Az.
25 Jul -0.8 04:15:06 10° NNW 04:17:51 24° NNE 04:20:35 10° E visible
25 Jul -2.4 20:52:34 10° SSW 20:55:23 27° SE 20:58:12 10° ENE visible
25 Jul -1.1 22:28:59 10° W 22:31:46 26° NNW 22:32:10 25° NNW visible
26 Jul -0.1 03:22:41 10° NNW 03:24:43 15° NNE 03:26:45 10° ENE visible
26 Jul -3.4 04:58:12 10° NW 05:01:26 67° SW 05:04:40 10° SE visible
26 Jul -2.3 21:35:35 10° WSW 21:38:45 48° NW 21:41:55 10° NE visible
27 Jul 0.3 02:30:53 10° N 02:31:30 10° NNE 02:32:07 10° NNE visible
27 Jul -2.6 04:05:19 10° NW 04:08:32 55° NE 04:11:43 10° ESE visible
27 Jul -3.5 20:42:34 10° SW 20:45:49 78° SE 20:49:04 10° NE visible
27 Jul 0.0 22:20:44 10° WNW 22:22:35 14° NNW 22:24:27 10° N visible
28 Jul -1.3 03:14:23 23° N 03:15:31 28° NE 03:18:23 10° E visible
28 Jul -2.2 04:49:10 10° WNW 04:51:51 24° SW 04:54:31 10° S visible
28 Jul -0.7 21:26:49 10° W 21:29:26 22° NNW 21:32:05 10° NNE visible
29 Jul -1.8 20:33:18 10° WSW 20:36:22 39° NW 20:39:28 10° NE visible
30 Jul -0.1 21:18:42 10° NW 21:20:16 13° NNW 21:21:50 10° N visible
31 Jul -0.4 20:24:37 10° W 20:27:05 19° NNW 20:29:33 10° NNE visible
02 Aug -0.1 20:16:45 10° NW 20:17:55 11° NNW 20:19:06 10° N visible
